Tracking 29892 objects as of 21-Nov-2024
HD Live streaming from Space Station
objects crossing your sky now

COSMOS 2535

Track COSMOS 2535 now!
10-day predictions


NORAD ID: 44421
Int'l Code: 2019-039A
Perigee: 600.6 km
Apogee: 611.6 km
Inclination: 97.6 °
Period: 96.7 minutes
Semi major axis: 6977 km
RCS: Unknown
Launch date: July 10, 2019
Source: Commonwealth of Independent States (former USSR) (CIS)
Launch site: PLESETSK MISSILE AND SPACE COMPLEX (PKMTR)
Your satellite tracking list
Your tracking list is empty




NASA's NSSDC Master Catalog

Two Line Element Set (TLE):
1 44421U 19039A   24326.14394624  .00002440  00000-0  26062-3 0  9996
2 44421  97.6472   3.6786 0007843 327.4896  32.5838 14.89664619291154
Source of the keplerian elements: AFSPC